�������l�o���
Date,Time,MP-1(��Sv/h),MP-2(��Sv/h),MP-3(��Sv/h),MP-4(��Sv/h),MP-5(��Sv/h),MP-6(��Sv/h),MP-7(��Sv/h),MP-8(��Sv/h),����,����(m/s),���J
2020/01/22,00:00,0.698,1.000,0.658,1.254,0.882,0.398,0.701,0.669,��,1.5,��
2020/01/22,00:10,0.699,1.002,0.659,1.254,0.882,0.399,0.702,0.667,��쐼,2.7,��
2020/01/22,00:20,0.699,1.001,0.657,1.253,0.879,0.398,0.702,0.669,��쐼,2.2,��
2020/01/22,00:30,0.699,1.002,0.660,1.253,0.879,0.398,0.702,0.668,�쐼,2.7,��
2020/01/22,00:40,0.699,1.002,0.660,1.255,0.881,0.397,0.701,0.669,���쐼,3.0,��
2020/01/22,00:50,0.696,1.002,0.658,1.253,0.880,0.398,0.702,0.669,���쐼,1.6,��
2020/01/22,01:00,0.699,1.003,0.659,1.252,0.879,0.399,0.703,0.668,���쐼,2.4,��
2020/01/22,01:10,0.699,1.003,0.658,1.253,0.881,0.399,0.702,0.669,���쐼,2.6,��
2020/01/22,01:20,0.699,1.002,0.659,1.252,0.881,0.398,0.701,0.669,���쐼,3.8,��
2020/01/22,01:30,0.699,1.001,0.660,1.254,0.880,0.398,0.702,0.669,���쐼,4.5,��
2020/01/22,01:40,0.700,1.001,0.658,1.251,0.881,0.397,0.702,0.670,���쐼,5.0,��
2020/01/22,01:50,0.697,1.001,0.658,1.252,0.880,0.398,0.703,0.668,���쐼,5.6,��
2020/01/22,02:00,0.698,1.002,0.658,1.251,0.878,0.399,0.703,0.668,���쐼,5.5,��
2020/01/22,02:10,0.701,1.001,0.657,1.254,0.880,0.398,0.701,0.669,���쐼,5.2,��
2020/01/22,02:20,0.698,1.002,0.659,1.252,0.879,0.398,0.702,0.669,���쐼,5.2,��
2020/01/22,02:30,0.697,0.999,0.657,1.252,0.879,0.397,0.702,0.669,���쐼,4.5,��
2020/01/22,02:40,0.698,0.999,0.658,1.253,0.881,0.397,0.703,0.667,���쐼,3.9,��
2020/01/22,02:50,0.698,1.001,0.656,1.253,0.879,0.397,0.702,0.670,���쐼,4.9,��
2020/01/22,03:00,0.697,1.000,0.658,1.254,0.879,0.398,0.702,0.667,���쐼,4.6,��
2020/01/22,03:10,0.695,1.000,0.658,1.254,0.878,0.398,0.702,0.668,��,4.1,��
2020/01/22,03:20,0.698,1.003,0.657,1.254,0.879,0.397,0.704,0.668,���쐼,3.9,��
2020/01/22,03:30,0.697,1.001,0.658,1.251,0.880,0.398,0.702,0.670,���쐼,3.6,��
2020/01/22,03:40,0.698,1.002,0.658,1.252,0.879,0.397,0.701,0.668,��,4.3,��
2020/01/22,03:50,0.697,1.000,0.657,1.253,0.879,0.397,0.701,0.668,��,4.7,��
2020/01/22,04:00,0.699,0.997,0.657,1.254,0.878,0.398,0.703,0.669,��,4.9,��
2020/01/22,04:10,0.697,1.000,0.658,1.254,0.878,0.397,0.704,0.668,��,5.5,��
2020/01/22,04:20,0.697,1.002,0.658,1.250,0.879,0.397,0.703,0.669,��,5.2,��
2020/01/22,04:30,0.698,1.000,0.658,1.252,0.879,0.399,0.703,0.669,��,5.3,��
2020/01/22,04:40,0.696,1.000,0.658,1.253,0.877,0.398,0.702,0.667,��,5.8,��
2020/01/22,04:50,0.696,1.001,0.658,1.252,0.877,0.397,0.703,0.668,��,5.5,��
2020/01/22,05:00,0.697,1.000,0.657,1.255,0.878,0.398,0.701,0.669,��,5.2,��
2020/01/22,05:10,0.699,1.000,0.657,1.254,0.877,0.398,0.702,0.668,��,4.9,��
2020/01/22,05:20,0.698,0.998,0.656,1.253,0.875,0.397,0.703,0.670,��,4.4,��
2020/01/22,05:30,0.698,0.999,0.657,1.253,0.881,0.397,0.702,0.668,��,4.7,��
2020/01/22,05:40,0.697,1.000,0.657,1.253,0.879,0.397,0.702,0.669,��,5.3,��
2020/01/22,05:50,0.695,0.999,0.657,1.250,0.875,0.398,0.704,0.668,��,4.6,��
2020/01/22,06:00,0.697,0.998,0.658,1.252,0.877,0.398,0.702,0.670,��,3.8,��
2020/01/22,06:10,0.696,0.999,0.657,1.252,0.878,0.397,0.701,0.669,��,3.8,��
2020/01/22,06:20,0.695,1.000,0.659,1.251,0.877,0.398,0.703,0.669,��,3.2,��
2020/01/22,06:30,0.698,1.001,0.658,1.254,0.876,0.397,0.701,0.669,��,4.3,��
2020/01/22,06:40,0.696,0.998,0.658,1.254,0.880,0.396,0.702,0.669,��,4.9,��
2020/01/22,06:50,0.696,0.998,0.656,1.254,0.878,0.397,0.702,0.668,��,5.0,��
2020/01/22,07:00,0.694,0.999,0.658,1.253,0.875,0.397,0.701,0.668,��,4.0,��
2020/01/22,07:10,0.695,0.998,0.656,1.250,0.875,0.395,0.702,0.668,��,3.8,��
2020/01/22,07:20,0.696,1.000,0.657,1.252,0.877,0.396,0.701,0.669,��,3.5,��
2020/01/22,07:30,0.697,0.999,0.657,1.253,0.877,0.396,0.700,0.668,��,3.4,��
2020/01/22,07:40,0.695,0.999,0.656,1.251,0.876,0.397,0.702,0.669,���k��,2.5,��
2020/01/22,07:50,0.697,0.998,0.657,1.251,0.875,0.398,0.703,0.668,���k��,2.8,��
2020/01/22,08:00,0.697,1.000,0.657,1.251,0.874,0.398,0.704,0.669,���k��,1.9,��
2020/01/22,08:10,0.698,1.000,0.656,1.253,0.874,0.398,0.702,0.669,���쐼,2.4,��
2020/01/22,08:20,0.699,0.999,0.657,1.253,0.877,0.399,0.701,0.667,���쐼,2.4,��
2020/01/22,08:30,0.698,1.000,0.655,1.254,0.876,0.396,0.703,0.668,���쐼,1.9,��
2020/01/22,08:40,0.697,0.999,0.656,1.253,0.877,0.395,0.702,0.668,�쐼,1.8,��
2020/01/22,08:50,0.699,0.998,0.655,1.253,0.876,0.393,0.702,0.668,���쐼,1.0,��
2020/01/22,09:00,0.699,0.999,0.656,1.254,0.879,0.389,0.704,0.669,�쐼,0.9,��
2020/01/22,09:10,0.702,0.997,0.654,1.254,0.878,0.385,0.703,0.671,�쐼,0.7,��
2020/01/22,09:20,0.699,0.998,0.654,1.252,0.878,0.375,0.703,0.669,��쓌,0.6,��
2020/01/22,09:30,0.699,0.997,0.654,1.255,0.878,0.370,0.706,0.671,�k��,0.5,��
2020/01/22,09:40,0.700,0.996,0.655,1.255,0.879,0.374,0.703,0.671,���k��,1.4,��
2020/01/22,09:50,0.702,0.998,0.655,1.253,0.881,0.374,0.702,0.670,���k��,1.2,��
2020/01/22,10:00,0.703,0.997,0.658,1.252,0.879,0.377,0.702,0.670,��,1.6,��
2020/01/22,10:10,0.703,1.000,0.656,1.254,0.880,0.390,0.700,0.669,��,1.6,��
2020/01/22,10:20,0.702,0.998,0.658,1.255,0.881,0.393,0.701,0.671,��,1.2,��
2020/01/22,10:30,0.701,0.999,0.657,1.255,0.882,0.395,0.699,0.671,���쓌,1.9,��
2020/01/22,10:40,0.702,0.995,0.658,1.255,0.881,0.391,0.700,0.670,�쓌,2.7,��
2020/01/22,10:50,0.701,0.995,0.660,1.254,0.881,0.397,0.701,0.669,�쓌,2.6,��
2020/01/22,11:00,0.699,0.999,0.659,1.254,0.880,0.396,0.700,0.669,�쓌,2.9,��
2020/01/22,11:10,0.702,0.999,0.660,1.254,0.878,0.395,0.701,0.669,��쓌,4.4,��
2020/01/22,11:20,0.704,1.000,0.662,1.256,0.882,0.396,0.701,0.670,��쓌,4.3,��
2020/01/22,11:30,0.703,1.003,0.660,1.255,0.882,0.397,0.703,0.669,��쓌,4.1,��
2020/01/22,11:40,0.703,1.000,0.660,1.256,0.882,0.391,0.703,0.669,��쓌,5.2,��
2020/01/22,11:50,0.702,0.999,0.660,1.257,0.881,0.393,0.703,0.668,��쓌,5.6,��
2020/01/22,12:00,0.705,1.004,0.660,1.256,0.885,0.393,0.702,0.669,��쓌,5.0,��
2020/01/22,12:10,0.704,1.002,0.661,1.256,0.883,0.397,0.703,0.669,��쓌,5.8,��
2020/01/22,12:20,0.705,1.007,0.660,1.255,0.883,0.397,0.703,0.670,��쓌,6.4,��
2020/01/22,12:30,0.704,1.004,0.663,1.257,0.882,0.397,0.704,0.670,��쓌,7.1,��
2020/01/22,12:40,0.703,1.006,0.662,1.256,0.883,0.398,0.704,0.671,��쓌,6.6,��
2020/01/22,12:50,0.704,1.006,0.663,1.257,0.884,0.399,0.702,0.672,��쓌,6.0,��
2020/01/22,13:00,0.706,1.004,0.661,1.256,0.881,0.400,0.704,0.669,��쓌,7.8,��
2020/01/22,13:10,0.705,1.005,0.661,1.258,0.884,0.397,0.703,0.672,��,8.0,��
2020/01/22,13:20,0.706,1.005,0.662,1.255,0.881,0.399,0.703,0.670,��,7.7,��
2020/01/22,13:30,0.705,1.003,0.661,1.258,0.884,0.398,0.704,0.668,��쓌,10.8,��
2020/01/22,13:40,0.706,1.004,0.660,1.258,0.883,0.395,0.703,0.670,��,9.4,��
2020/01/22,13:50,0.703,1.005,0.664,1.261,0.884,0.397,0.701,0.670,��쓌,10.2,��
2020/01/22,14:00,0.703,1.005,0.662,1.256,0.885,0.392,0.703,0.671,��쓌,10.1,��
2020/01/22,14:10,0.704,1.004,0.661,1.255,0.884,0.390,0.704,0.671,��,8.0,��
2020/01/22,14:20,0.704,1.006,0.663,1.257,0.884,0.396,0.703,0.670,��쓌,9.1,��
2020/01/22,14:30,0.704,1.005,0.661,1.257,0.884,0.398,0.704,0.670,��쓌,7.1,��
2020/01/22,14:40,0.704,1.006,0.661,1.256,0.886,0.398,0.706,0.672,��쓌,8.2,��
2020/01/22,14:50,0.704,1.007,0.662,1.258,0.886,0.397,0.703,0.671,��쓌,7.1,��
2020/01/22,15:00,0.706,1.006,0.662,1.257,0.885,0.398,0.703,0.671,��쓌,5.8,��
2020/01/22,15:10,0.703,1.005,0.662,1.258,0.886,0.401,0.704,0.670,��쓌,6.8,��
2020/01/22,15:20,0.705,1.006,0.662,1.256,0.885,0.399,0.705,0.671,��쓌,7.2,��
2020/01/22,15:30,0.704,1.008,0.663,1.258,0.888,0.399,0.705,0.671,��쓌,8.3,��
2020/01/22,15:40,0.705,1.009,0.661,1.258,0.887,0.402,0.706,0.671,��쓌,8.0,��
2020/01/22,15:50,0.703,1.010,0.661,1.258,0.886,0.397,0.704,0.671,��,7.4,��
2020/01/22,16:00,0.705,1.008,0.661,1.256,0.887,0.396,0.705,0.671,��,6.8,��
2020/01/22,16:10,0.704,1.012,0.661,1.255,0.887,0.393,0.704,0.670,��쓌,7.1,��
2020/01/22,16:20,0.703,1.011,0.663,1.256,0.887,0.398,0.704,0.671,��쓌,7.7,��
2020/01/22,16:30,0.705,1.010,0.662,1.258,0.885,0.394,0.706,0.672,��,6.4,��
2020/01/22,16:40,0.703,1.008,0.663,1.258,0.885,0.396,0.704,0.671,��,6.6,��
2020/01/22,16:50,0.704,1.008,0.663,1.258,0.885,0.395,0.705,0.671,��,6.7,��
2020/01/22,17:00,0.704,1.008,0.663,1.256,0.887,0.398,0.705,0.671,��,6.4,��
2020/01/22,17:10,0.703,1.012,0.663,1.257,0.886,0.404,0.706,0.670,��,6.4,��
2020/01/22,17:20,0.705,1.012,0.662,1.259,0.884,0.404,0.705,0.669,��,6.3,��
2020/01/22,17:30,0.705,1.011,0.662,1.256,0.886,0.403,0.703,0.670,��,5.5,��
2020/01/22,17:40,0.703,1.012,0.662,1.257,0.884,0.404,0.706,0.669,��,4.5,��
2020/01/22,17:50,0.705,1.011,0.662,1.256,0.884,0.404,0.706,0.669,��,2.6,��
2020/01/22,18:00,0.703,1.008,0.663,1.253,0.885,0.404,0.704,0.671,��,1.1,��
2020/01/22,18:10,0.703,1.011,0.663,1.257,0.886,0.402,0.706,0.670,�쓌,0.7,��
2020/01/22,18:20,0.705,1.011,0.664,1.259,0.887,0.404,0.706,0.669,��쓌,1.3,��
2020/01/22,18:30,0.703,1.009,0.663,1.256,0.883,0.403,0.705,0.670,��쓌,1.6,��
2020/01/22,18:40,0.705,1.010,0.663,1.258,0.885,0.402,0.706,0.670,��쓌,3.9,��
2020/01/22,18:50,0.703,1.013,0.663,1.259,0.887,0.404,0.703,0.670,��쓌,4.4,��
2020/01/22,19:00,0.705,1.008,0.664,1.255,0.886,0.402,0.706,0.670,��쓌,4.0,��
2020/01/22,19:10,0.705,1.009,0.663,1.257,0.884,0.402,0.706,0.670,��쓌,3.8,��
2020/01/22,19:20,0.705,1.010,0.663,1.258,0.886,0.403,0.706,0.669,��쓌,4.0,��
2020/01/22,19:30,0.704,1.009,0.662,1.257,0.885,0.403,0.705,0.668,��쓌,3.0,��
2020/01/22,19:40,0.706,1.008,0.663,1.258,0.885,0.403,0.704,0.670,��쓌,2.8,��
2020/01/22,19:50,0.706,1.006,0.664,1.256,0.885,0.403,0.704,0.672,��쓌,2.7,��
2020/01/22,20:00,0.703,1.010,0.663,1.258,0.885,0.402,0.704,0.672,��쓌,2.7,��
2020/01/22,20:10,0.704,1.007,0.661,1.257,0.884,0.403,0.707,0.670,��쓌,2.2,��
2020/01/22,20:20,0.706,1.011,0.663,1.259,0.886,0.403,0.704,0.670,��쓌,2.0,��
2020/01/22,20:30,0.706,1.009,0.663,1.257,0.885,0.402,0.704,0.670,��쓌,2.7,��
2020/01/22,20:40,0.705,1.009,0.661,1.259,0.886,0.402,0.705,0.670,��쓌,2.4,��
2020/01/22,20:50,0.705,1.008,0.664,1.256,0.884,0.402,0.705,0.671,�쓌,1.8,��
2020/01/22,21:00,0.705,1.008,0.663,1.256,0.885,0.402,0.704,0.670,��쓌,1.3,��
2020/01/22,21:10,0.705,1.008,0.663,1.260,0.886,0.402,0.704,0.671,��,0.8,��
2020/01/22,21:20,0.705,1.008,0.663,1.259,0.887,0.403,0.705,0.669,��,0.5,��
2020/01/22,21:30,0.703,1.010,0.664,1.258,0.887,0.403,0.706,0.670,���쓌,0.6,��
2020/01/22,21:40,0.704,1.008,0.665,1.259,0.885,0.402,0.704,0.671,-,CALM,��
2020/01/22,21:50,0.706,1.007,0.663,1.257,0.886,0.402,0.706,0.670,�쓌,1.3,��
2020/01/22,22:00,0.705,1.008,0.663,1.257,0.885,0.400,0.705,0.671,��,1.1,��
2020/01/22,22:10,0.703,1.009,0.664,1.260,0.887,0.402,0.705,0.670,-,CALM,��
2020/01/22,22:20,0.707,1.008,0.663,1.258,0.886,0.403,0.705,0.669,�k��,1.0,��
2020/01/22,22:30,0.705,1.009,0.667,1.257,0.887,0.403,0.705,0.670,�k�k��,1.3,��
2020/01/22,22:40,0.705,1.007,0.664,1.257,0.886,0.401,0.706,0.671,�k��,1.3,��
2020/01/22,22:50,0.705,1.010,0.665,1.257,0.886,0.402,0.707,0.670,�k��,2.6,��
2020/01/22,23:00,0.705,1.009,0.664,1.258,0.887,0.402,0.706,0.671,�k��,2.0,��
2020/01/22,23:10,0.705,1.010,0.663,1.257,0.887,0.403,0.706,0.670,�k��,2.5,��
2020/01/22,23:20,0.705,1.008,0.663,1.258,0.886,0.402,0.706,0.670,�k��,3.2,��
2020/01/22,23:30,0.704,1.007,0.663,1.258,0.886,0.401,0.705,0.671,�k��,2.5,��
2020/01/22,23:40,0.705,1.008,0.663,1.258,0.888,0.402,0.705,0.671,�k�k��,2.6,��
2020/01/22,23:50,0.704,1.007,0.663,1.260,0.887,0.402,0.704,0.670,�k��,2.3,��
